Location: Kershaw
(34.5481°N, 80.5823°W)
Time: 15:18:27
(UTC+00:00)

Altair - Pass Details

Date: 05 October 2022
Orbit: 1501 x 1682 km, 47.2° (Epoch: 08 December)

Event Time Altitude Azimuth Distance (km) Brightness Sun altitude
Rises 07:30:05 0° 199° (SSW) 4,674 - -46.1°
Reaches altitude 10° 07:33:25 10° 191° (S) 3,716 - -45.6°
Maximum altitude 07:41:41 36° 129° (SE) 2,334 - -44.1°
Exits shadow 07:42:16 35° 122° (ESE) 2,348 8.5 -44.0°
Drops below altitude 10° 07:50:14 10° 68° (ENE) 3,856 10.2 -42.6°
Sets 07:53:44 0° 60° (ENE) 4,870 11.0 -42.0°
